QPF
0.00 0.00 0.00 0.00 0.00 0.00 0.00 0.00 0.00 0.00 0.00 0.00 0.00 0.00 0.00 0.00 0.00 0.00 0.00 0.00 0.00 0.00 0.00 0.01 0.01 0.01 0.01 0.01 0.01 0.02 0.02 0.02 0.02 0.02 0.02 0.03 0.03 0.02
0.00 0.00 0.00 0.00 0.00 0.00 0.00 0.00 0.00 0.00 0.00 0.00 0.00 0.00 0.00 0.00 0.00 0.00 0.00 0.00 0.00 0.00 0.00 0.00 0.00 0.00 0.00 0.01 0.01 0.01 0.02 0.02 0.02 0.02 0.02 0.02 0.02 0.02
0.00 0.00 0.00 0.00 0.00 0.00 0.00 0.00 0.00 0.00 0.00 0.00 0.00 0.00 0.00 0.00 0.00 0.00 0.00 0.00 0.00 0.00 0.00 0.00 0.00 0.00 0.00 0.00 0.00 0.01 0.01 0.01 0.01 0.01 0.01 0.01 0.01 0.01
0.00 0.00 0.00 0.00 0.00 0.00 0.00 0.00 0.00 0.00 0.00 0.00 0.00 0.00 0.00 0.00 0.00 0.00 0.00 0.00 0.00 0.00 0.00 0.00 0.00 0.00 0.00 0.00 0.00 0.00 0.01 0.01 0.01 0.01 0.00 0.00 0.01 0.01
0.00 0.00 0.00 0.00 0.00 0.00 0.00 0.00 0.00 0.00 0.00 0.00 0.00 0.00 0.00 0.00 0.00 0.00 0.00 0.00 0.00 0.00 0.00 0.00 0.00 0.00 0.00 0.00 0.00 0.00 0.00 0.01 0.01 0.01 0.01 0.00 0.00 0.00
0.00 0.00 0.00 0.00 0.00 0.00 0.00 0.00 0.00 0.00 0.00 0.00 0.00 0.00 0.00 0.00 0.00 0.00 0.00 0.00 0.00 0.00 0.00 0.00 0.00 0.00 0.00 0.00 0.00 0.00 0.00 0.01 0.01 0.01 0.01 0.01 0.00 0.00
0.00 0.00 0.00 0.00 0.00 0.00 0.00 0.00 0.00 0.00 0.00 0.00 0.00 0.00 0.00 0.00 0.00 0.00 0.00 0.00 0.00 0.00 0.00 0.00 0.00 0.00 0.00 0.00 0.00 0.00 0.00 0.00 0.00 0.00 0.00 0.01 0.00 0.00
0.00 0.00 0.00 0.00 0.00 0.00 0.00 0.00 0.00 0.00 0.00 0.00 0.00 0.00 0.00 0.00 0.00 0.00 0.00 0.00 0.00 0.00 0.00 0.00 0.00 0.00 0.00 0.00 0.00 0.00 0.00 0.00 0.00 0.00 0.00 0.00 0.00 0.00
0.00 0.00 0.00 0.00 0.00 0.00 0.00 0.00 0.00 0.00 0.00 0.00 0.00 0.00 0.00 0.00 0.00 0.00 0.00 0.00 0.00 0.00 0.00 0.00 0.00 0.00 0.00 0.00 0.00 0.00 0.00 0.00 0.00 0.00 0.00 0.00 0.00 0.00
0.00 0.00 0.00 0.00 0.00 0.00 0.00 0.00 0.00 0.00 0.00 0.00 0.00 0.00 0.00 0.00 0.00 0.00 0.00 0.00 0.00 0.00 0.00 0.00 0.00 0.00 0.00 0.00 0.00 0.00 0.00 0.00 0.00 0.00 0.00 0.00 0.00 0.00
0.00 0.00 0.00 0.00 0.00 0.00 0.00 0.00 0.00 0.00 0.00 0.00 0.00 0.00 0.00 0.00 0.00 0.00 0.00 0.00 0.00 0.00 0.00 0.00 0.00 0.00 0.00 0.00 0.00 0.00 0.00 0.00 0.00 0.00 0.00 0.00 0.00 0.00
0.00 0.00 0.00 0.00 0.00 0.00 0.00 0.00 0.00 0.00 0.00 0.00 0.00 0.00 0.00 0.00 0.00 0.00 0.00 0.00 0.00 0.00 0.00 0.00 0.00 0.00 0.00 0.00 0.00 0.00 0.00 0.00 0.00 0.00 0.00 0.00 0.00 0.00
0.00 0.00 0.00 0.00 0.00 0.00 0.00 0.00 0.00 0.00 0.00 0.00 0.00 0.00 0.00 0.00 0.00 0.00 0.00 0.00 0.00 0.00 0.00 0.00 0.00 0.00 0.00 0.00 0.00 0.00 0.00 0.00 0.00 0.00 0.00 0.00 0.00 0.00
0.00 0.00 0.00 0.00 0.00 0.00 0.00 0.00 0.00 0.00 0.00 0.00 0.00 0.00 0.00 0.00 0.00 0.00 0.00 0.00 0.00 0.00 0.00 0.00 0.00 0.00 0.00 0.00 0.00 0.00 0.00 0.00 0.00 0.00 0.00 0.00 0.00 0.00
0.00 0.00 0.00 0.00 0.00 0.00 0.00 0.00 0.00 0.00 0.00 0.00 0.00 0.00 0.00 0.00 0.00 0.00 0.00 0.00 0.00 0.00 0.00 0.00 0.00 0.00 0.00 0.00 0.00 0.00 0.00 0.00 0.00 0.00 0.00 0.00 0.00 0.00
0.00 0.00 0.00 0.00 0.00 0.00 0.00 0.00 0.00 0.00 0.00 0.00 0.00 0.00 0.00 0.00 0.00 0.00 0.00 0.00 0.00 0.00 0.00 0.00 0.00 0.00 0.00 0.00 0.00 0.00 0.00 0.00 0.00 0.00 0.00 0.00 0.00 0.00
0.00 0.00 0.00 0.00 0.00 0.00 0.00 0.00 0.00 0.00 0.00 0.00 0.00 0.00 0.00 0.00 0.00 0.00 0.00 0.00 0.00 0.00 0.00 0.00 0.00 0.00 0.00 0.00 0.00 0.00 0.00 0.00 0.00 0.00 0.00 0.00 0.00 0.00
0.00 0.00 0.00 0.00 0.00 0.00 0.00 0.00 0.00 0.00 0.00 0.00 0.00 0.00 0.00 0.00 0.00 0.00 0.00 0.00 0.00 0.00 0.00 0.00 0.00 0.00 0.00 0.00 0.00 0.00 0.00 0.00 0.00 0.00 0.00 0.00 0.00 0.00
0.00 0.00 0.00 0.00 0.00 0.00 0.00 0.00 0.00 0.00 0.00 0.00 0.00 0.00 0.00 0.00 0.00 0.00 0.00 0.00 0.00 0.00 0.00 0.00 0.00 0.00 0.00 0.00 0.00 0.00 0.00 0.00 0.00 0.00 0.00 0.00 0.00 0.00
0.00 0.00 0.00 0.00 0.00 0.00 0.00 0.00 0.00 0.00 0.00 0.00 0.00 0.00 0.00 0.00 0.00 0.00 0.00 0.00 0.00 0.00 0.00 0.00 0.00 0.00 0.00 0.00 0.00 0.00 0.00 0.00 0.00 0.00 0.00 0.00 0.00 0.00
0.00 0.00 0.00 0.00 0.00 0.00 0.00 0.00 0.00 0.00 0.00 0.00 0.00 0.00 0.00 0.00 0.00 0.00 0.00 0.00 0.00 0.00 0.00 0.00 0.00 0.00 0.00 0.00 0.00 0.00 0.00 0.00 0.00 0.00 0.00 0.00 0.00 0.00
0.00 0.00 0.00 0.00 0.00 0.00 0.00 0.00 0.00 0.00 0.00 0.00 0.00 0.00 0.00 0.00 0.00 0.00 0.00 0.00 0.00 0.00 0.00 0.00 0.00 0.00 0.00 0.00 0.00 0.00 0.00 0.00 0.00 0.00 0.00 0.00 0.00 0.00
0.00 0.00 0.00 0.00 0.00 0.00 0.00 0.00 0.00 0.00 0.00 0.00 0.00 0.00 0.00 0.00 0.00 0.00 0.00 0.00 0.00 0.00 0.00 0.00 0.00 0.00 0.00 0.00 0.00 0.00 0.00 0.00 0.00 0.00 0.00 0.00 0.00 0.00
MSLP
1025.13 1025.40 1025.61 1025.61 1025.82 1025.78 1025.88 1026.01 1026.30 1026.36 1026.69 1026.99 1027.09 1026.78 1026.44 1026.13 1025.76 1025.73 1025.38 1024.77 1024.46 1023.90 1023.38 1022.81 1022.44 1022.01 1021.27 1020.57 1019.90 1019.04 1018.26 1017.28 1016.36 1015.44 1014.55 1013.67 1012.56 1011.55
1025.66 1026.03 1025.92 1026.00 1026.11 1026.07 1026.35 1026.31 1026.59 1026.56 1026.86 1027.17 1027.46 1027.21 1026.75 1026.36 1026.09 1026.00 1025.68 1025.34 1024.95 1024.35 1023.74 1023.46 1022.81 1022.44 1021.72 1021.03 1020.44 1019.72 1018.91 1017.95 1016.94 1016.10 1015.13 1014.18 1013.06 1012.14
1026.20 1026.34 1026.30 1026.31 1026.30 1026.59 1026.75 1026.82 1026.90 1026.95 1027.01 1027.27 1027.53 1027.30 1026.87 1026.79 1026.48 1026.22 1025.89 1025.64 1025.47 1024.84 1024.31 1023.86 1023.23 1022.91 1022.28 1021.58 1020.82 1020.29 1019.52 1018.59 1017.51 1016.55 1015.67 1014.70 1013.91 1012.84
1026.21 1026.44 1026.54 1026.69 1026.86 1026.91 1027.14 1027.28 1027.41 1027.48 1027.32 1027.44 1027.68 1027.53 1027.18 1027.22 1027.00 1026.61 1026.28 1026.06 1025.84 1025.33 1024.82 1024.33 1023.65 1023.13 1022.69 1022.15 1021.29 1020.52 1019.81 1019.01 1018.00 1017.06 1016.18 1015.46 1014.42 1013.51
1026.42 1026.35 1027.06 1027.03 1027.54 1027.46 1027.51 1027.69 1027.80 1027.83 1027.70 1027.91 1028.00 1027.91 1027.61 1027.44 1027.13 1026.78 1026.48 1026.52 1026.10 1025.74 1025.20 1024.78 1024.17 1023.68 1023.22 1022.56 1021.72 1020.98 1020.13 1019.44 1018.60 1017.61 1016.77 1015.88 1015.20 1014.37
1026.73 1026.72 1027.25 1027.19 1027.73 1027.93 1028.00 1028.18 1028.31 1028.15 1028.09 1028.20 1028.55 1028.46 1028.10 1027.69 1027.38 1027.06 1026.63 1026.62 1026.50 1026.06 1025.58 1025.15 1024.68 1024.24 1023.63 1022.96 1022.05 1021.39 1020.66 1019.80 1019.05 1018.00 1017.12 1016.40 1015.60 1015.01
1026.50 1026.64 1027.07 1027.34 1027.55 1028.09 1028.10 1028.56 1028.72 1028.64 1028.61 1028.66 1028.88 1029.19 1028.89 1028.37 1028.07 1027.95 1027.36 1026.87 1026.70 1026.63 1026.24 1025.78 1025.20 1024.82 1024.29 1023.58 1022.37 1021.67 1020.97 1020.24 1019.47 1018.73 1017.81 1016.91 1016.12 1015.37
1026.81 1026.99 1027.37 1026.97 1027.21 1027.93 1027.89 1028.26 1028.89 1028.89 1029.07 1029.38 1029.69 1029.88 1029.83 1029.62 1029.16 1028.50 1028.08 1027.63 1027.39 1026.90 1027.13 1026.45 1025.87 1025.26 1024.91 1024.23 1023.07 1022.19 1021.38 1020.65 1019.92 1019.16 1018.40 1017.48 1016.66 1016.03
1026.56 1026.92 1027.55 1027.34 1028.11 1028.61 1028.21 1028.50 1028.45 1028.55 1029.12 1029.65 1030.01 1030.24 1030.15 1030.09 1029.83 1029.09 1028.80 1028.90 1028.93 1028.44 1028.20 1027.21 1026.45 1025.78 1025.26 1024.69 1023.70 1022.95 1022.27 1021.47 1020.68 1019.86 1019.07 1018.26 1017.46 1016.85
1026.29 1026.93 1027.09 1027.57 1028.49 1028.76 1028.99 1029.36 1029.36 1029.40 1029.42 1029.40 1029.91 1030.24 1030.10 1029.88 1029.90 1029.59 1029.55 1029.28 1029.17 1029.19 1029.27 1028.49 1027.11 1026.44 1025.92 1025.12 1024.45 1023.67 1022.99 1022.15 1021.34 1020.53 1019.78 1018.96 1018.11 1017.42
1026.51 1026.90 1026.84 1027.52 1027.82 1028.10 1028.51 1029.12 1029.55 1029.66 1029.12 1028.96 1029.09 1029.33 1029.37 1029.17 1029.18 1028.91 1029.50 1029.50 1029.53 1029.67 1029.71 1029.51 1028.10 1027.32 1026.45 1025.66 1025.02 1024.28 1023.75 1022.93 1022.11 1021.22 1020.29 1019.44 1018.60 1017.85
1026.54 1026.55 1026.87 1027.49 1027.62 1028.06 1028.51 1029.08 1029.72 1030.27 1030.01 1029.97 1030.14 1030.11 1030.16 1029.89 1029.74 1029.87 1029.88 1029.76 1030.00 1030.00 1029.75 1029.62 1028.68 1028.23 1027.09 1026.10 1025.62 1025.08 1024.33 1023.51 1022.78 1021.97 1021.02 1019.94 1019.14 1018.49
1026.16 1026.60 1027.05 1027.30 1027.83 1028.10 1028.50 1029.14 1029.46 1030.52 1030.68 1030.65 1030.70 1030.70 1030.44 1030.21 1030.23 1030.20 1030.25 1029.81 1029.96 1030.08 1029.85 1029.34 1028.98 1028.50 1028.26 1027.16 1026.21 1025.47 1024.85 1024.06 1023.40 1022.61 1021.74 1020.79 1019.97 1019.16
1026.06 1026.51 1027.08 1027.21 1027.70 1028.16 1028.76 1028.73 1029.32 1030.49 1030.55 1030.81 1031.10 1031.29 1031.22 1030.97 1030.78 1030.61 1030.40 1030.27 1030.13 1029.99 1029.78 1029.27 1028.99 1028.88 1028.53 1027.73 1026.95 1025.96 1025.16 1024.52 1024.07 1023.30 1022.45 1021.63 1020.87 1020.13
1025.74 1026.21 1026.64 1026.92 1027.71 1028.20 1028.41 1028.85 1030.06 1030.54 1030.86 1031.33 1031.59 1031.83 1031.88 1031.68 1031.39 1030.78 1030.36 1030.14 1029.91 1029.86 1029.58 1029.41 1029.21 1028.79 1028.63 1028.15 1027.61 1026.69 1025.59 1024.95 1024.66 1024.01 1023.13 1022.41 1021.73 1020.99
1025.32 1026.02 1026.65 1027.55 1028.55 1029.23 1029.38 1029.98 1030.19 1030.48 1030.98 1031.48 1031.76 1031.92 1032.20 1031.60 1031.25 1031.29 1030.77 1030.54 1030.31 1030.02 1029.62 1029.39 1029.04 1028.86 1028.43 1028.01 1027.81 1027.18 1026.70 1026.06 1025.17 1024.54 1023.71 1022.99 1022.24 1021.66
1025.57 1026.32 1027.01 1027.79 1028.73 1029.43 1029.88 1030.14 1030.39 1030.73 1030.95 1031.25 1031.58 1031.78 1031.79 1031.56 1031.38 1031.12 1031.00 1030.87 1030.69 1030.39 1030.01 1029.58 1029.17 1028.69 1028.15 1028.17 1027.71 1027.46 1026.98 1026.43 1025.77 1024.95 1024.07 1023.31 1022.53 1022.05
1025.31 1026.13 1026.85 1027.58 1028.19 1028.99 1029.65 1030.09 1030.22 1030.44 1030.73 1031.02 1031.36 1031.53 1031.54 1031.46 1031.36 1031.25 1031.15 1031.02 1030.80 1030.59 1030.40 1030.14 1029.66 1028.89 1028.29 1027.99 1027.58 1027.55 1027.27 1026.82 1026.14 1025.36 1024.59 1023.73 1022.76 1022.19
1024.59 1025.39 1026.29 1027.03 1027.54 1028.33 1028.99 1029.36 1029.76 1030.01 1030.26 1030.74 1031.10 1031.31 1031.38 1031.38 1031.37 1031.34 1031.31 1031.14 1030.99 1030.87 1030.75 1030.58 1030.10 1029.57 1028.98 1028.63 1028.23 1027.89 1027.60 1027.12 1026.46 1025.66 1024.91 1024.22 1023.35 1022.42
1023.94 1024.86 1025.66 1026.43 1027.05 1027.68 1028.29 1028.81 1029.28 1029.74 1030.17 1030.62 1031.01 1031.28 1031.42 1031.40 1031.43 1031.43 1031.43 1031.43 1031.34 1031.19 1031.04 1030.82 1030.50 1030.14 1029.66 1029.41 1029.12 1028.52 1028.10 1027.53 1026.87 1026.00 1025.14 1024.46 1023.78 1022.72
1023.46 1024.28 1024.82 1025.56 1026.33 1026.96 1027.58 1028.23 1028.81 1029.45 1029.94 1030.50 1030.96 1031.23 1031.42 1031.47 1031.56 1031.57 1031.59 1031.70 1031.61 1031.42 1031.20 1031.01 1030.82 1030.50 1029.78 1029.47 1029.56 1028.98 1028.37 1027.89 1027.34 1026.45 1025.60 1024.67 1023.70 1022.63
1022.90 1023.55 1024.13 1024.79 1025.60 1026.32 1027.09 1027.84 1028.66 1029.32 1029.89 1030.39 1030.78 1031.10 1031.32 1031.40 1031.47 1031.53 1031.65 1031.62 1031.61 1031.56 1031.39 1031.24 1030.84 1030.45 1030.02 1029.77 1029.62 1029.29 1028.63 1028.11 1027.34 1026.66 1026.08 1025.52 1024.86 1023.64
1022.34 1022.99 1023.66 1024.24 1024.94 1025.73 1026.61 1027.52 1028.25 1028.92 1029.44 1029.95 1030.45 1030.84 1031.11 1031.30 1031.31 1031.46 1031.60 1031.61 1031.61 1031.62 1031.56 1031.36 1031.08 1030.82 1030.49 1030.23 1030.03 1029.66 1029.12 1028.33 1027.48 1026.52 1025.96 1025.53 1024.96 1024.30
Thickness
5428 5422 5417 5413 5405 5401 5396 5390 5384 5384 5375 5365 5361 5359 5358 5356 5355 5352 5350 5347 5345 5345 5345 5346 5347 5349 5356 5364 5372 5382 5393 5406 5420 5435 5448 5462 5479 5495
5414 5409 5406 5401 5395 5391 5384 5380 5373 5371 5367 5357 5351 5350 5350 5349 5347 5346 5344 5342 5340 5341 5341 5341 5343 5345 5350 5356 5363 5371 5380 5392 5406 5419 5433 5446 5461 5476
5401 5397 5394 5390 5386 5379 5373 5369 5364 5359 5358 5349 5344 5343 5344 5341 5341 5340 5339 5338 5336 5336 5337 5338 5340 5341 5345 5350 5356 5362 5370 5380 5393 5405 5418 5431 5442 5458
5393 5387 5382 5378 5373 5369 5362 5357 5352 5347 5346 5341 5336 5336 5336 5333 5332 5333 5332 5331 5330 5331 5333 5334 5336 5339 5341 5345 5350 5356 5364 5372 5383 5393 5404 5415 5427 5440
5381 5378 5368 5365 5357 5354 5351 5345 5341 5337 5334 5331 5327 5327 5327 5326 5326 5326 5326 5324 5324 5326 5327 5328 5331 5333 5335 5339 5344 5350 5357 5364 5372 5382 5392 5402 5411 5422
5368 5365 5357 5355 5346 5341 5336 5330 5328 5327 5325 5321 5318 5316 5317 5318 5318 5318 5320 5318 5317 5318 5320 5320 5322 5324 5328 5332 5338 5342 5348 5356 5363 5372 5381 5389 5399 5406
5362 5358 5350 5345 5339 5330 5327 5319 5315 5315 5314 5312 5308 5306 5306 5308 5307 5305 5309 5310 5309 5307 5309 5310 5312 5313 5316 5321 5328 5333 5338 5345 5352 5360 5368 5377 5386 5394
5348 5345 5340 5336 5330 5320 5318 5313 5308 5302 5301 5298 5292 5290 5291 5290 5294 5295 5295 5297 5297 5297 5296 5298 5300 5303 5305 5308 5315 5322 5328 5333 5338 5345 5353 5362 5371 5378
5340 5335 5329 5327 5316 5309 5307 5302 5298 5295 5293 5286 5281 5279 5281 5282 5281 5284 5283 5280 5279 5282 5280 5285 5288 5292 5293 5294 5299 5305 5310 5316 5321 5328 5335 5342 5350 5358
5334 5327 5324 5318 5305 5299 5295 5290 5286 5284 5282 5279 5276 5274 5274 5275 5274 5273 5271 5271 5271 5270 5268 5270 5273 5277 5278 5281 5282 5286 5291 5296 5302 5308 5315 5323 5331 5338
5323 5317 5315 5307 5298 5292 5288 5283 5277 5273 5273 5270 5269 5267 5267 5266 5266 5268 5264 5262 5260 5257 5253 5252 5258 5259 5261 5264 5267 5269 5271 5275 5281 5287 5293 5301 5309 5317
5314 5310 5305 5297 5290 5284 5279 5274 5267 5262 5261 5260 5258 5257 5256 5256 5256 5256 5252 5253 5246 5246 5243 5241 5242 5240 5248 5247 5248 5249 5251 5254 5258 5263 5270 5277 5284 5291
5306 5301 5296 5288 5279 5275 5271 5265 5260 5254 5250 5248 5247 5245 5246 5246 5245 5244 5243 5241 5237 5232 5229 5230 5228 5226 5221 5226 5227 5227 5229 5231 5233 5237 5242 5248 5255 5262
5298 5294 5288 5279 5270 5264 5261 5257 5252 5246 5242 5239 5236 5233 5232 5232 5232 5231 5230 5227 5225 5220 5218 5217 5216 5211 5207 5208 5208 5208 5207 5208 5208 5212 5215 5218 5222 5228
5292 5287 5280 5272 5261 5256 5252 5248 5242 5236 5232 5228 5224 5221 5219 5219 5219 5219 5217 5215 5212 5209 5206 5203 5199 5197 5191 5189 5187 5189 5192 5190 5187 5189 5194 5198 5200 5202
5286 5278 5272 5263 5253 5246 5241 5236 5233 5229 5224 5219 5215 5211 5210 5209 5209 5205 5203 5200 5197 5195 5194 5190 5186 5182 5179 5176 5171 5169 5168 5170 5173 5172 5175 5179 5182 5184
5276 5269 5261 5253 5243 5235 5229 5226 5224 5220 5216 5210 5206 5204 5201 5199 5197 5195 5192 5188 5184 5180 5177 5174 5171 5169 5168 5163 5160 5155 5153 5153 5155 5158 5161 5162 5168 5169
5269 5260 5249 5244 5239 5230 5223 5219 5216 5212 5208 5204 5199 5195 5193 5190 5187 5184 5180 5176 5172 5169 5164 5159 5156 5154 5151 5149 5148 5145 5141 5139 5140 5143 5145 5149 5153 5156
5264 5257 5249 5240 5235 5227 5221 5216 5212 5208 5203 5198 5193 5188 5184 5181 5177 5172 5168 5164 5160 5156 5151 5146 5143 5141 5137 5132 5130 5129 5128 5126 5127 5129 5131 5133 5138 5142
5262 5254 5245 5237 5232 5224 5218 5213 5208 5202 5196 5191 5184 5179 5174 5171 5166 5162 5156 5151 5147 5142 5137 5133 5129 5125 5123 5118 5114 5112 5111 5112 5112 5114 5117 5118 5121 5128
5258 5250 5244 5236 5228 5221 5215 5209 5202 5196 5190 5182 5176 5170 5163 5160 5155 5150 5144 5137 5133 5129 5124 5119 5114 5110 5108 5105 5099 5096 5094 5094 5094 5098 5102 5106 5110 5114
5254 5248 5242 5235 5226 5218 5210 5202 5194 5187 5181 5174 5167 5161 5154 5151 5146 5139 5133 5128 5122 5116 5111 5105 5101 5097 5094 5091 5086 5082 5080 5078 5079 5081 5083 5085 5089 5095
5250 5245 5238 5231 5223 5215 5206 5197 5190 5182 5176 5168 5161 5154 5145 5141 5135 5128 5122 5116 5110 5103 5096 5091 5086 5081 5078 5074 5069 5066 5065 5065 5067 5067 5067 5069 5071 5075